Year,Month,Day,Hour,Minute,Value (Times are PST for temperature in C)
2014,05,22,00,00,13.50
2014,05,22,00,01,13.50
2014,05,22,00,02,13.50
2014,05,22,00,03,13.50
2014,05,22,00,04,13.50
2014,05,22,00,05,13.60
2014,05,22,00,06,13.60
2014,05,22,00,07,13.60
2014,05,22,00,08,13.60
2014,05,22,00,09,13.60
2014,05,22,00,10,13.60
2014,05,22,00,11,13.50
2014,05,22,00,12,13.50
2014,05,22,00,13,13.50
2014,05,22,00,14,13.50
2014,05,22,00,15,13.50
2014,05,22,00,16,13.40
2014,05,22,00,17,13.40
2014,05,22,00,18,13.40
2014,05,22,00,19,13.40
2014,05,22,00,20,13.30
2014,05,22,00,21,13.30
2014,05,22,00,22,13.30
2014,05,22,00,23,13.30
2014,05,22,00,24,13.30
2014,05,22,00,25,13.30
2014,05,22,00,26,13.30
2014,05,22,00,27,13.30
2014,05,22,00,28,13.30
2014,05,22,00,29,13.30
2014,05,22,00,30,13.30
2014,05,22,00,31,13.30
2014,05,22,00,32,13.30
2014,05,22,00,33,13.30
2014,05,22,00,34,13.30
2014,05,22,00,35,13.30
2014,05,22,00,36,13.30
2014,05,22,00,37,13.30
2014,05,22,00,38,13.30
2014,05,22,00,39,13.30
2014,05,22,00,40,13.30
2014,05,22,00,41,13.30
2014,05,22,00,42,13.30
2014,05,22,00,43,13.30
2014,05,22,00,44,13.30
2014,05,22,00,45,13.30
2014,05,22,00,46,13.30
2014,05,22,00,47,13.30
2014,05,22,00,48,13.30
2014,05,22,00,49,13.30
2014,05,22,00,50,13.30
2014,05,22,00,51,13.30
2014,05,22,00,52,13.20
2014,05,22,00,53,13.20
2014,05,22,00,54,13.20
2014,05,22,00,55,13.20
2014,05,22,00,56,13.20
2014,05,22,00,57,13.10
2014,05,22,00,58,13.10
2014,05,22,00,59,13.10
2014,05,22,01,00,13.10
2014,05,22,01,01,13.00
2014,05,22,01,02,13.00
2014,05,22,01,03,13.00
2014,05,22,01,04,13.00
2014,05,22,01,05,12.90
2014,05,22,01,06,12.90
2014,05,22,01,07,12.90
2014,05,22,01,08,12.80
2014,05,22,01,09,12.80
2014,05,22,01,10,12.80
2014,05,22,01,11,12.70
2014,05,22,01,12,12.60
2014,05,22,01,13,12.60
2014,05,22,01,14,12.50
2014,05,22,01,15,12.50
2014,05,22,01,16,12.50
2014,05,22,01,17,12.50
2014,05,22,01,18,12.40
2014,05,22,01,19,12.40
2014,05,22,01,20,12.40
2014,05,22,01,21,12.40
2014,05,22,01,22,12.30
2014,05,22,01,23,12.30
2014,05,22,01,24,12.30
2014,05,22,01,25,12.30
2014,05,22,01,26,12.30
2014,05,22,01,27,12.30
2014,05,22,01,28,12.30
2014,05,22,01,29,12.30
2014,05,22,01,30,12.30
2014,05,22,01,31,12.30
2014,05,22,01,32,12.30
2014,05,22,01,33,12.20
2014,05,22,01,34,12.20
2014,05,22,01,35,12.20
2014,05,22,01,36,12.20
2014,05,22,01,37,12.20
2014,05,22,01,38,12.20
2014,05,22,01,39,12.20
2014,05,22,01,40,12.20
2014,05,22,01,41,12.10
2014,05,22,01,42,12.10
2014,05,22,01,43,12.10
2014,05,22,01,44,12.00
2014,05,22,01,45,12.00
2014,05,22,01,46,12.00
2014,05,22,01,47,12.00
2014,05,22,01,48,12.00
2014,05,22,01,49,12.00
2014,05,22,01,50,12.00
2014,05,22,01,51,12.00
2014,05,22,01,52,12.00
2014,05,22,01,53,12.00
2014,05,22,01,54,12.00
2014,05,22,01,55,12.00
2014,05,22,01,56,12.00
2014,05,22,01,57,12.00
2014,05,22,01,58,12.00
2014,05,22,01,59,12.00
2014,05,22,02,00,12.00
2014,05,22,02,01,12.00
2014,05,22,02,02,12.00
2014,05,22,02,03,12.00
2014,05,22,02,04,12.00
2014,05,22,02,05,12.00
2014,05,22,02,06,12.00
2014,05,22,02,07,12.00
2014,05,22,02,08,12.00
2014,05,22,02,09,12.00
2014,05,22,02,10,12.00
2014,05,22,02,11,12.00
2014,05,22,02,12,11.90
2014,05,22,02,13,11.90
2014,05,22,02,14,11.90
2014,05,22,02,15,11.90
2014,05,22,02,16,11.90
2014,05,22,02,17,11.80
2014,05,22,02,18,11.80
2014,05,22,02,19,11.80
2014,05,22,02,20,11.80
2014,05,22,02,21,11.80
2014,05,22,02,22,11.80
2014,05,22,02,23,11.80
2014,05,22,02,24,11.80
2014,05,22,02,25,11.80
2014,05,22,02,26,11.80
2014,05,22,02,27,11.70
2014,05,22,02,28,11.70
2014,05,22,02,29,11.70
2014,05,22,02,30,11.70
2014,05,22,02,31,11.60
2014,05,22,02,32,11.60
2014,05,22,02,33,11.60
2014,05,22,02,34,11.60
2014,05,22,02,35,11.60
2014,05,22,02,36,11.60
2014,05,22,02,37,11.60
2014,05,22,02,38,11.60
2014,05,22,02,39,11.50
2014,05,22,02,40,11.40
2014,05,22,02,41,11.40
2014,05,22,02,42,11.40
2014,05,22,02,43,11.40
2014,05,22,02,44,11.40
2014,05,22,02,45,11.40
2014,05,22,02,46,11.40
2014,05,22,02,47,11.40
2014,05,22,02,48,11.40
2014,05,22,02,49,11.40
2014,05,22,02,50,11.30
2014,05,22,02,51,11.30
2014,05,22,02,52,11.30
2014,05,22,02,53,11.30
2014,05,22,02,54,11.30
2014,05,22,02,55,11.20
2014,05,22,02,56,11.20
2014,05,22,02,57,11.20
2014,05,22,02,58,11.10
2014,05,22,02,59,11.10
2014,05,22,03,00,11.10
2014,05,22,03,01,11.10
2014,05,22,03,02,11.10
2014,05,22,03,03,11.10
2014,05,22,03,04,11.10
2014,05,22,03,05,11.10
2014,05,22,03,06,11.10
2014,05,22,03,07,11.10
2014,05,22,03,08,11.10
2014,05,22,03,09,11.10
2014,05,22,03,10,11.10
2014,05,22,03,11,11.10
2014,05,22,03,12,11.10
2014,05,22,03,13,11.10
2014,05,22,03,14,11.10
2014,05,22,03,15,11.10
2014,05,22,03,16,11.10
2014,05,22,03,17,11.10
2014,05,22,03,18,11.10
2014,05,22,03,19,11.00
2014,05,22,03,20,11.00
2014,05,22,03,21,10.90
2014,05,22,03,22,10.90
2014,05,22,03,23,10.90
2014,05,22,03,24,10.90
2014,05,22,03,25,10.90
2014,05,22,03,26,10.90
2014,05,22,03,27,10.90
2014,05,22,03,28,10.90
2014,05,22,03,29,10.90
2014,05,22,03,30,10.90
2014,05,22,03,31,10.90
2014,05,22,03,32,10.90
2014,05,22,03,33,10.90
2014,05,22,03,34,10.90
2014,05,22,03,35,10.90
2014,05,22,03,36,10.90
2014,05,22,03,37,10.90
2014,05,22,03,38,10.90
2014,05,22,03,39,10.90
2014,05,22,03,40,11.00
2014,05,22,03,41,11.10
2014,05,22,03,42,11.10
2014,05,22,03,43,11.10
2014,05,22,03,44,11.10
2014,05,22,03,45,11.10
2014,05,22,03,46,11.10
2014,05,22,03,47,11.10
2014,05,22,03,48,11.10
2014,05,22,03,49,11.10
2014,05,22,03,50,11.10
2014,05,22,03,51,11.10
2014,05,22,03,52,11.10
2014,05,22,03,53,11.10
2014,05,22,03,54,11.10
2014,05,22,03,55,11.10
2014,05,22,03,56,11.10
2014,05,22,03,57,11.10
2014,05,22,03,58,11.10
2014,05,22,03,59,11.10
2014,05,22,04,00,11.10
2014,05,22,04,01,11.10
2014,05,22,04,02,11.10
2014,05,22,04,03,11.10
2014,05,22,04,04,11.10
2014,05,22,04,05,11.10
2014,05,22,04,06,11.10
2014,05,22,04,07,11.10
2014,05,22,04,08,11.10
2014,05,22,04,09,11.10
2014,05,22,04,10,11.10
2014,05,22,04,11,11.00
2014,05,22,04,12,10.90
2014,05,22,04,13,10.90
2014,05,22,04,14,10.90
2014,05,22,04,15,10.90
2014,05,22,04,16,10.90
2014,05,22,04,17,10.90
2014,05,22,04,18,10.90
2014,05,22,04,19,10.90
2014,05,22,04,20,10.90
2014,05,22,04,21,10.90
2014,05,22,04,22,10.90
2014,05,22,04,23,10.90
2014,05,22,04,24,10.90
2014,05,22,04,25,10.90
2014,05,22,04,26,10.90
2014,05,22,04,27,10.90
2014,05,22,04,28,10.90
2014,05,22,04,29,10.90
2014,05,22,04,30,10.90
2014,05,22,04,31,10.90
2014,05,22,04,32,10.90
2014,05,22,04,33,10.90
2014,05,22,04,34,10.90
2014,05,22,04,35,10.90
2014,05,22,04,36,10.90
2014,05,22,04,37,10.90
2014,05,22,04,38,10.90
2014,05,22,04,39,10.90
2014,05,22,04,40,10.90
2014,05,22,04,41,10.90
2014,05,22,04,42,10.90
2014,05,22,04,43,10.90
2014,05,22,04,44,10.90
2014,05,22,04,45,10.90
2014,05,22,04,46,10.90
2014,05,22,04,47,10.90
2014,05,22,04,48,10.80
2014,05,22,04,49,10.80
2014,05,22,04,50,10.80
2014,05,22,04,51,10.70
2014,05,22,04,52,10.70
2014,05,22,04,53,10.70
2014,05,22,04,54,10.70
2014,05,22,04,55,10.60
2014,05,22,04,56,10.60
2014,05,22,04,57,10.60
2014,05,22,04,58,10.60
2014,05,22,04,59,10.70
2014,05,22,05,00,10.70
2014,05,22,05,01,10.70
2014,05,22,05,02,10.80
2014,05,22,05,03,10.80
2014,05,22,05,04,10.80
2014,05,22,05,05,10.80
2014,05,22,05,06,10.80
2014,05,22,05,07,10.80
2014,05,22,05,08,10.80
2014,05,22,05,09,10.80
2014,05,22,05,10,10.80
2014,05,22,05,11,10.80
2014,05,22,05,12,10.80
2014,05,22,05,13,10.80
2014,05,22,05,14,10.80
2014,05,22,05,15,10.80
2014,05,22,05,16,10.80
2014,05,22,05,17,10.80
2014,05,22,05,18,10.80
2014,05,22,05,19,10.80
2014,05,22,05,20,10.80
2014,05,22,05,21,10.80
2014,05,22,05,22,10.70
2014,05,22,05,23,10.70
2014,05,22,05,24,10.70
2014,05,22,05,25,10.60
2014,05,22,05,26,10.60
2014,05,22,05,27,10.60
2014,05,22,05,28,10.50
2014,05,22,05,29,10.40
2014,05,22,05,30,10.40
2014,05,22,05,31,10.40
2014,05,22,05,32,10.40
2014,05,22,05,33,10.40
2014,05,22,05,34,10.40
2014,05,22,05,35,10.40
2014,05,22,05,36,10.40
2014,05,22,05,37,10.40
2014,05,22,05,38,10.40
2014,05,22,05,39,10.40
2014,05,22,05,40,10.40
2014,05,22,05,41,10.40
2014,05,22,05,42,10.40
2014,05,22,05,43,10.40
2014,05,22,05,44,10.50
2014,05,22,05,45,10.60
2014,05,22,05,46,10.60
2014,05,22,05,47,10.60
2014,05,22,05,48,10.60
2014,05,22,05,49,10.60
2014,05,22,05,50,10.60
2014,05,22,05,51,10.60
2014,05,22,05,52,10.60
2014,05,22,05,53,10.70
2014,05,22,05,54,10.70
2014,05,22,05,55,10.70
2014,05,22,05,56,10.70
2014,05,22,05,57,10.70
2014,05,22,05,58,10.80
2014,05,22,05,59,10.80
2014,05,22,06,00,10.80
2014,05,22,06,01,10.80
2014,05,22,06,02,10.80
2014,05,22,06,03,10.80
2014,05,22,06,04,10.80
2014,05,22,06,05,10.80
2014,05,22,06,06,10.80
2014,05,22,06,07,10.80
2014,05,22,06,08,10.90
2014,05,22,06,09,10.90
2014,05,22,06,10,10.90
2014,05,22,06,11,10.90
2014,05,22,06,12,10.90
2014,05,22,06,13,10.90
2014,05,22,06,14,10.90
2014,05,22,06,15,10.90
2014,05,22,06,16,10.90
2014,05,22,06,17,10.90
2014,05,22,06,18,10.90
2014,05,22,06,19,10.90
2014,05,22,06,20,10.90
2014,05,22,06,21,10.90
2014,05,22,06,22,10.90
2014,05,22,06,23,10.90
2014,05,22,06,24,10.90
2014,05,22,06,25,10.90
2014,05,22,06,26,10.90
2014,05,22,06,27,10.90
2014,05,22,06,28,10.90
2014,05,22,06,29,10.90
2014,05,22,06,30,10.90
2014,05,22,06,31,11.00
2014,05,22,06,32,11.10
2014,05,22,06,33,11.10
2014,05,22,06,34,11.10
2014,05,22,06,35,11.10
2014,05,22,06,36,11.10
2014,05,22,06,37,11.10
2014,05,22,06,38,11.10
2014,05,22,06,39,11.10
2014,05,22,06,40,11.10
2014,05,22,06,41,11.10
2014,05,22,06,42,11.10
2014,05,22,06,43,11.10
2014,05,22,06,44,11.10
2014,05,22,06,45,11.10
2014,05,22,06,46,11.10
2014,05,22,06,47,11.10
2014,05,22,06,48,11.10
2014,05,22,06,49,11.20
2014,05,22,06,50,11.20
2014,05,22,06,51,11.20
2014,05,22,06,52,11.20
2014,05,22,06,53,11.30
2014,05,22,06,54,11.30
2014,05,22,06,55,11.30
2014,05,22,06,56,11.30
2014,05,22,06,57,11.40
2014,05,22,06,58,11.40
2014,05,22,06,59,11.40
2014,05,22,07,00,11.40
2014,05,22,07,01,11.40
2014,05,22,07,02,11.50
2014,05,22,07,03,11.60
2014,05,22,07,04,11.60
2014,05,22,07,05,11.60
2014,05,22,07,06,11.70
2014,05,22,07,07,11.70
2014,05,22,07,08,11.80
2014,05,22,07,09,11.90
2014,05,22,07,10,12.00
2014,05,22,07,11,12.10
2014,05,22,07,12,12.20
2014,05,22,07,13,12.30
2014,05,22,07,14,12.40
2014,05,22,07,15,12.50
2014,05,22,07,16,12.50
2014,05,22,07,17,12.60
2014,05,22,07,18,12.60
2014,05,22,07,19,12.60
2014,05,22,07,20,12.70
2014,05,22,07,21,12.70
2014,05,22,07,22,12.70
2014,05,22,07,23,12.60
2014,05,22,07,24,12.60
2014,05,22,07,25,12.60
2014,05,22,07,26,12.60
2014,05,22,07,27,12.60
2014,05,22,07,28,12.60
2014,05,22,07,29,12.70
2014,05,22,07,30,12.70
2014,05,22,07,31,12.70
2014,05,22,07,32,12.70
2014,05,22,07,33,12.60
2014,05,22,07,34,12.60
2014,05,22,07,35,12.50
2014,05,22,07,36,12.50
2014,05,22,07,37,12.40
2014,05,22,07,38,12.40
2014,05,22,07,39,12.40
2014,05,22,07,40,12.40
2014,05,22,07,41,12.50
2014,05,22,07,42,12.50
2014,05,22,07,43,12.50
2014,05,22,07,44,12.60
2014,05,22,07,45,12.60
2014,05,22,07,46,12.60
2014,05,22,07,47,12.60
2014,05,22,07,48,12.60
2014,05,22,07,49,12.60
2014,05,22,07,50,12.60
2014,05,22,07,51,12.60
2014,05,22,07,52,12.60
2014,05,22,07,53,12.60
2014,05,22,07,54,12.60
2014,05,22,07,55,12.50
2014,05,22,07,56,12.50
2014,05,22,07,57,12.60
2014,05,22,07,58,12.60
2014,05,22,07,59,12.70
2014,05,22,08,00,12.70
2014,05,22,08,01,12.80
2014,05,22,08,02,12.80
2014,05,22,08,03,12.90
2014,05,22,08,04,13.00
2014,05,22,08,05,13.10
2014,05,22,08,06,13.20
2014,05,22,08,07,13.30
2014,05,22,08,08,13.40
2014,05,22,08,09,13.50
2014,05,22,08,10,13.60
2014,05,22,08,11,13.60
2014,05,22,08,12,13.70
2014,05,22,08,13,13.80
2014,05,22,08,14,13.90
2014,05,22,08,15,14.00
2014,05,22,08,16,14.10
2014,05,22,08,17,14.10
2014,05,22,08,18,14.20
2014,05,22,08,19,14.20
2014,05,22,08,20,14.20
2014,05,22,08,21,14.20
2014,05,22,08,22,14.20
2014,05,22,08,23,14.20
2014,05,22,08,24,14.20
2014,05,22,08,25,14.20
2014,05,22,08,26,14.20
2014,05,22,08,27,14.20
2014,05,22,08,28,14.20
2014,05,22,08,29,14.30
2014,05,22,08,30,14.30
2014,05,22,08,31,14.30
2014,05,22,08,32,14.30
2014,05,22,08,33,14.30
2014,05,22,08,34,14.40
2014,05,22,08,35,14.40
2014,05,22,08,36,14.40
2014,05,22,08,37,14.40
2014,05,22,08,38,14.40
2014,05,22,08,39,14.40
2014,05,22,08,40,14.30
2014,05,22,08,41,14.30
2014,05,22,08,42,14.40
2014,05,22,08,43,14.40
2014,05,22,08,44,14.40
2014,05,22,08,45,14.40
2014,05,22,08,46,14.40
2014,05,22,08,47,14.40
2014,05,22,08,48,14.40
2014,05,22,08,49,14.30
2014,05,22,08,50,14.20
2014,05,22,08,51,14.20
2014,05,22,08,52,14.10
2014,05,22,08,53,14.00
2014,05,22,08,54,13.90
2014,05,22,08,55,13.80
2014,05,22,08,56,13.80
2014,05,22,08,57,13.70
2014,05,22,08,58,13.70
2014,05,22,08,59,13.60
2014,05,22,09,00,13.60
2014,05,22,09,01,13.50
2014,05,22,09,02,13.50
2014,05,22,09,03,13.40
2014,05,22,09,04,13.40
2014,05,22,09,05,13.30
2014,05,22,09,06,13.30
2014,05,22,09,07,13.30
2014,05,22,09,08,13.20
2014,05,22,09,09,13.20
2014,05,22,09,10,13.10
2014,05,22,09,11,13.00
2014,05,22,09,12,12.90
2014,05,22,09,13,12.80
2014,05,22,09,14,12.80
2014,05,22,09,15,12.80
2014,05,22,09,16,12.80
2014,05,22,09,17,12.80
2014,05,22,09,18,12.80
2014,05,22,09,19,12.70
2014,05,22,09,20,12.70
2014,05,22,09,21,12.70
2014,05,22,09,22,12.70
2014,05,22,09,23,12.80
2014,05,22,09,24,12.80
2014,05,22,09,25,12.70
2014,05,22,09,26,12.60
2014,05,22,09,27,12.60
2014,05,22,09,28,12.60
2014,05,22,09,29,12.60
2014,05,22,09,30,12.60
2014,05,22,09,31,12.50
2014,05,22,09,32,12.50
2014,05,22,09,33,12.60
2014,05,22,09,34,12.60
2014,05,22,09,35,12.70
2014,05,22,09,36,12.80
2014,05,22,09,37,12.90
2014,05,22,09,38,13.00
2014,05,22,09,39,13.00
2014,05,22,09,40,13.00
2014,05,22,09,41,13.10
2014,05,22,09,42,13.20
2014,05,22,09,43,13.30
2014,05,22,09,44,13.40
2014,05,22,09,45,13.50
2014,05,22,09,46,13.60
2014,05,22,09,47,13.60
2014,05,22,09,48,13.60
2014,05,22,09,49,13.60
2014,05,22,09,50,13.70
2014,05,22,09,51,13.70
2014,05,22,09,52,13.70
2014,05,22,09,53,13.70
2014,05,22,09,54,13.80
2014,05,22,09,55,13.90
2014,05,22,09,56,13.90
2014,05,22,09,57,13.90
2014,05,22,09,58,14.00
2014,05,22,09,59,14.00
2014,05,22,10,00,14.00
2014,05,22,10,01,14.00
2014,05,22,10,02,13.90
2014,05,22,10,03,13.80
2014,05,22,10,04,13.80
2014,05,22,10,05,13.70
2014,05,22,10,06,13.70
2014,05,22,10,07,13.80
2014,05,22,10,08,13.90
2014,05,22,10,09,14.00
2014,05,22,10,10,14.10
2014,05,22,10,11,14.10
2014,05,22,10,12,14.20
2014,05,22,10,13,14.20
2014,05,22,10,14,14.30
2014,05,22,10,15,14.40
2014,05,22,10,16,14.40
2014,05,22,10,17,14.50
2014,05,22,10,18,14.50
2014,05,22,10,19,14.50
2014,05,22,10,20,14.50
2014,05,22,10,21,14.50
2014,05,22,10,22,14.40
2014,05,22,10,23,14.40
2014,05,22,10,24,14.40
2014,05,22,10,25,14.40
2014,05,22,10,26,14.40
2014,05,22,10,27,14.40
2014,05,22,10,28,14.40
2014,05,22,10,29,14.40
2014,05,22,10,30,14.30
2014,05,22,10,31,14.30
2014,05,22,10,32,14.20
2014,05,22,10,33,14.20
2014,05,22,10,34,14.20
2014,05,22,10,35,14.20
2014,05,22,10,36,14.10
2014,05,22,10,37,14.10
2014,05,22,10,38,14.00
2014,05,22,10,39,14.00
2014,05,22,10,40,14.00
2014,05,22,10,41,14.00
2014,05,22,10,42,14.00
2014,05,22,10,43,14.10
2014,05,22,10,44,14.10
2014,05,22,10,45,14.20
2014,05,22,10,46,14.20
2014,05,22,10,47,14.20
2014,05,22,10,48,14.20
2014,05,22,10,49,14.30
2014,05,22,10,50,14.30
2014,05,22,10,51,14.40
2014,05,22,10,52,14.50
2014,05,22,10,53,14.50
2014,05,22,10,54,14.60
2014,05,22,10,55,14.60
2014,05,22,10,56,14.60
2014,05,22,10,57,14.60
2014,05,22,10,58,14.60
2014,05,22,10,59,14.70
2014,05,22,11,00,14.70
2014,05,22,11,01,14.80
2014,05,22,11,02,14.80
2014,05,22,11,03,14.80
2014,05,22,11,04,14.90
2014,05,22,11,05,14.90
2014,05,22,11,06,15.00
2014,05,22,11,07,15.00
2014,05,22,11,08,15.00
2014,05,22,11,09,15.10
2014,05,22,11,10,15.10
2014,05,22,11,11,15.20
2014,05,22,11,12,15.20
2014,05,22,11,13,15.20
2014,05,22,11,14,15.30
2014,05,22,11,15,15.30
2014,05,22,11,16,15.30
2014,05,22,11,17,15.30
2014,05,22,11,18,15.30
2014,05,22,11,19,15.30
2014,05,22,11,20,15.30
2014,05,22,11,21,15.40
2014,05,22,11,22,15.40
2014,05,22,11,23,15.40
2014,05,22,11,24,15.40
2014,05,22,11,25,15.50
2014,05,22,11,26,15.50
2014,05,22,11,27,15.50
2014,05,22,11,28,15.50
2014,05,22,11,29,15.50
2014,05,22,11,30,15.50
2014,05,22,11,31,15.40
2014,05,22,11,32,15.30
2014,05,22,11,33,15.30
2014,05,22,11,34,15.30
2014,05,22,11,35,15.20
2014,05,22,11,36,15.20
2014,05,22,11,37,15.10
2014,05,22,11,38,15.10
2014,05,22,11,39,15.00
2014,05,22,11,40,14.80
2014,05,22,11,41,14.80
2014,05,22,11,42,14.80
2014,05,22,11,43,14.80
2014,05,22,11,44,14.70
2014,05,22,11,45,14.70
2014,05,22,11,46,14.70
2014,05,22,11,47,14.60
2014,05,22,11,48,14.60
2014,05,22,11,49,14.60
2014,05,22,11,50,14.70
2014,05,22,11,51,14.60
2014,05,22,11,52,14.70
2014,05,22,11,53,14.70
2014,05,22,11,54,14.80
2014,05,22,11,55,14.80
2014,05,22,11,56,14.80
2014,05,22,11,57,14.80
2014,05,22,11,58,14.80
2014,05,22,11,59,14.80
2014,05,22,12,00,14.90
2014,05,22,12,01,14.90
2014,05,22,12,02,15.00
2014,05,22,12,03,15.00
2014,05,22,12,04,15.00
2014,05,22,12,05,15.10
2014,05,22,12,06,15.10
2014,05,22,12,07,15.10
2014,05,22,12,08,15.10
2014,05,22,12,09,15.20
2014,05,22,12,10,15.20
2014,05,22,12,11,15.20
2014,05,22,12,12,15.30
2014,05,22,12,13,15.30
2014,05,22,12,14,15.30
2014,05,22,12,15,15.30
2014,05,22,12,16,15.30
2014,05,22,12,17,15.40
2014,05,22,12,18,15.40
2014,05,22,12,19,15.40
2014,05,22,12,20,15.50
2014,05,22,12,21,15.60
2014,05,22,12,22,15.70
2014,05,22,12,23,15.80
2014,05,22,12,24,15.80
2014,05,22,12,25,15.80
2014,05,22,12,26,15.80
2014,05,22,12,27,15.90
2014,05,22,12,28,16.00
2014,05,22,12,29,16.10
2014,05,22,12,30,16.20
2014,05,22,12,31,16.10
2014,05,22,12,32,16.10
2014,05,22,12,33,16.10
2014,05,22,12,34,16.10
2014,05,22,12,35,16.10
2014,05,22,12,36,16.10
2014,05,22,12,37,16.20
2014,05,22,12,38,16.20
2014,05,22,12,39,16.30
2014,05,22,12,40,16.50
2014,05,22,12,41,16.70
2014,05,22,12,42,16.80
2014,05,22,12,43,16.80
2014,05,22,12,44,16.90
2014,05,22,12,45,16.90
2014,05,22,12,46,16.80
2014,05,22,12,47,16.80
2014,05,22,12,48,16.80
2014,05,22,12,49,16.70
2014,05,22,12,50,16.70
2014,05,22,12,51,16.70
2014,05,22,12,52,16.70
2014,05,22,12,53,16.70
2014,05,22,12,54,16.60
2014,05,22,12,55,16.50
2014,05,22,12,56,16.40
2014,05,22,12,57,16.30
2014,05,22,12,58,16.20
2014,05,22,12,59,16.10
2014,05,22,13,00,15.90
2014,05,22,13,01,15.80
2014,05,22,13,02,15.70
2014,05,22,13,03,15.70
2014,05,22,13,04,15.60
2014,05,22,13,05,15.70
2014,05,22,13,06,15.70
2014,05,22,13,07,15.70
2014,05,22,13,08,15.70
2014,05,22,13,09,15.80
2014,05,22,13,10,15.80
2014,05,22,13,11,15.80
2014,05,22,13,12,15.80
2014,05,22,13,13,15.70
2014,05,22,13,14,15.70
2014,05,22,13,15,15.70
2014,05,22,13,16,15.70
2014,05,22,13,17,15.70
2014,05,22,13,18,15.70
2014,05,22,13,19,15.60
2014,05,22,13,20,15.60
2014,05,22,13,21,15.60
2014,05,22,13,22,15.50
2014,05,22,13,23,15.50
2014,05,22,13,24,15.50
2014,05,22,13,25,15.40
2014,05,22,13,26,15.30
2014,05,22,13,27,15.30
2014,05,22,13,28,15.30
2014,05,22,13,29,15.30
2014,05,22,13,30,15.30
2014,05,22,13,31,15.30
2014,05,22,13,32,15.30
2014,05,22,13,33,15.30
2014,05,22,13,34,15.40
2014,05,22,13,35,15.40
2014,05,22,13,36,15.50
2014,05,22,13,37,15.50
2014,05,22,13,38,15.50
2014,05,22,13,39,15.50
2014,05,22,13,40,15.50
2014,05,22,13,41,15.50
2014,05,22,13,42,15.50
2014,05,22,13,43,15.40
2014,05,22,13,44,15.40
2014,05,22,13,45,15.40
2014,05,22,13,46,15.40
2014,05,22,13,47,15.50
2014,05,22,13,48,15.50
2014,05,22,13,49,15.60
2014,05,22,13,50,15.60
2014,05,22,13,51,15.70
2014,05,22,13,52,15.80
2014,05,22,13,53,16.00
2014,05,22,13,54,16.20
2014,05,22,13,55,16.30
2014,05,22,13,56,16.50
2014,05,22,13,57,16.70
2014,05,22,13,58,16.90
2014,05,22,13,59,17.10
2014,05,22,14,00,17.40
2014,05,22,14,01,17.70
2014,05,22,14,02,17.90
2014,05,22,14,03,18.10
2014,05,22,14,04,18.20
2014,05,22,14,05,18.40
2014,05,22,14,06,18.50
2014,05,22,14,07,18.60
2014,05,22,14,08,18.60
2014,05,22,14,09,18.70
2014,05,22,14,10,18.70
2014,05,22,14,11,18.70
2014,05,22,14,12,18.70
2014,05,22,14,13,18.60
2014,05,22,14,14,18.50
2014,05,22,14,15,18.40
2014,05,22,14,16,18.40
2014,05,22,14,17,18.30
2014,05,22,14,18,18.40
2014,05,22,14,19,18.40
2014,05,22,14,20,18.40
2014,05,22,14,21,18.40
2014,05,22,14,22,18.40
2014,05,22,14,23,18.50
2014,05,22,14,24,18.50
2014,05,22,14,25,18.60
2014,05,22,14,26,18.60
2014,05,22,14,27,18.70
2014,05,22,14,28,18.80
2014,05,22,14,29,18.80
2014,05,22,14,30,18.90
2014,05,22,14,31,19.00
2014,05,22,14,32,19.10
2014,05,22,14,33,19.10
2014,05,22,14,34,19.10
2014,05,22,14,35,19.10
2014,05,22,14,36,19.10
2014,05,22,14,37,19.10
2014,05,22,14,38,19.10
2014,05,22,14,39,19.10
2014,05,22,14,40,19.10
2014,05,22,14,41,19.20
2014,05,22,14,42,19.20
2014,05,22,14,43,19.20
2014,05,22,14,44,19.20
2014,05,22,14,45,19.20
2014,05,22,14,46,19.20
2014,05,22,14,47,19.20
2014,05,22,14,48,19.30
2014,05,22,14,49,19.40
2014,05,22,14,50,19.40
2014,05,22,14,51,19.30
2014,05,22,14,52,19.30
2014,05,22,14,53,19.30
2014,05,22,14,54,19.30
2014,05,22,14,55,19.20
2014,05,22,14,56,19.30
2014,05,22,14,57,19.30
2014,05,22,14,58,19.30
2014,05,22,14,59,19.30
2014,05,22,15,00,19.30
2014,05,22,15,01,19.30
2014,05,22,15,02,19.40
2014,05,22,15,03,19.40
2014,05,22,15,04,19.50
2014,05,22,15,05,19.50
2014,05,22,15,06,19.50
2014,05,22,15,07,19.50
2014,05,22,15,08,19.50
2014,05,22,15,09,19.50
2014,05,22,15,10,19.50
2014,05,22,15,11,19.50
2014,05,22,15,12,19.50
2014,05,22,15,13,19.60
2014,05,22,15,14,19.60
2014,05,22,15,15,19.60
2014,05,22,15,16,19.60
2014,05,22,15,17,19.60
2014,05,22,15,18,19.70
2014,05,22,15,19,19.60
2014,05,22,15,20,19.60
2014,05,22,15,21,19.50
2014,05,22,15,22,19.50
2014,05,22,15,23,19.50
2014,05,22,15,24,19.50
2014,05,22,15,25,19.40
2014,05,22,15,26,19.40
2014,05,22,15,27,19.40
2014,05,22,15,28,19.30
2014,05,22,15,29,19.30
2014,05,22,15,30,19.30
2014,05,22,15,31,19.40
2014,05,22,15,32,19.30
2014,05,22,15,33,19.30
2014,05,22,15,34,19.30
2014,05,22,15,35,19.30
2014,05,22,15,36,19.30
2014,05,22,15,37,19.30
2014,05,22,15,38,19.20
2014,05,22,15,39,19.30
2014,05,22,15,40,19.30
2014,05,22,15,41,19.30
2014,05,22,15,42,19.30
2014,05,22,15,43,19.30
2014,05,22,15,44,19.30
2014,05,22,15,45,19.30
2014,05,22,15,46,19.20
2014,05,22,15,47,19.20
2014,05,22,15,48,19.10
2014,05,22,15,49,19.00
2014,05,22,15,50,18.90
2014,05,22,15,51,18.90
2014,05,22,15,52,18.90
2014,05,22,15,53,18.80
2014,05,22,15,54,18.80
2014,05,22,15,55,18.80
2014,05,22,15,56,18.80
2014,05,22,15,57,18.80
2014,05,22,15,58,18.90
2014,05,22,15,59,18.90
2014,05,22,16,00,18.90
2014,05,22,16,01,18.90
2014,05,22,16,02,18.90
2014,05,22,16,03,18.90
2014,05,22,16,04,18.90
2014,05,22,16,05,18.90
2014,05,22,16,06,18.90
2014,05,22,16,07,18.90
2014,05,22,16,08,18.90
2014,05,22,16,09,18.80
2014,05,22,16,10,18.80
2014,05,22,16,11,18.80
2014,05,22,16,12,18.80
2014,05,22,16,13,18.80
2014,05,22,16,14,18.80
2014,05,22,16,15,18.80
2014,05,22,16,16,18.90
2014,05,22,16,17,18.90
2014,05,22,16,18,18.90
2014,05,22,16,19,18.80
2014,05,22,16,20,18.80
2014,05,22,16,21,18.80
2014,05,22,16,22,18.80
2014,05,22,16,23,18.80
2014,05,22,16,24,18.80
2014,05,22,16,25,18.80
2014,05,22,16,26,18.80
2014,05,22,16,27,18.80
2014,05,22,16,28,18.80
2014,05,22,16,29,18.70
2014,05,22,16,30,18.70
2014,05,22,16,31,18.70
2014,05,22,16,32,18.70
2014,05,22,16,33,18.70
2014,05,22,16,34,18.70
2014,05,22,16,35,18.70
2014,05,22,16,36,18.70
2014,05,22,16,37,18.80
2014,05,22,16,38,18.80
2014,05,22,16,39,18.80
2014,05,22,16,40,18.90
2014,05,22,16,41,18.90
2014,05,22,16,42,18.90
2014,05,22,16,43,18.90
2014,05,22,16,44,18.90
2014,05,22,16,45,18.90
2014,05,22,16,46,18.90
2014,05,22,16,47,18.90
2014,05,22,16,48,18.90
2014,05,22,16,49,18.90
2014,05,22,16,50,18.90
2014,05,22,16,51,19.00
2014,05,22,16,52,19.10
2014,05,22,16,53,19.10
2014,05,22,16,54,19.10
2014,05,22,16,55,19.10
2014,05,22,16,56,19.10
2014,05,22,16,57,19.10
2014,05,22,16,58,19.10
2014,05,22,16,59,19.10
2014,05,22,17,00,19.10
2014,05,22,17,01,19.10
2014,05,22,17,02,19.10
2014,05,22,17,03,19.10
2014,05,22,17,04,19.20
2014,05,22,17,05,19.20
2014,05,22,17,06,19.30
2014,05,22,17,07,19.30
2014,05,22,17,08,19.30
2014,05,22,17,09,19.40
2014,05,22,17,10,19.40
2014,05,22,17,11,19.40
2014,05,22,17,12,19.30
2014,05,22,17,13,19.30
2014,05,22,17,14,19.40
2014,05,22,17,15,19.40
2014,05,22,17,16,19.40
2014,05,22,17,17,19.40
2014,05,22,17,18,19.40
2014,05,22,17,19,19.50